Regional Weather Roundup
Issued by NWS

Home | Current Version | Previous Version | Graphics & Text | Print | Product List | Glossary On
Versions: 1 2 3 4 5 6 7 8 9 10 11 12 13 14 15 16 17 18 19 20 21 22 23 24 25 26 27 28 29 30 31 32 33 34 35 36 37 38 39 40 41 42 43 44 45 46 47 48 49 50
000
ASUS45 KABQ 242301
RWRNM
WEATHER ROUNDUP FOR NEW MEXICO
NATIONAL WEATHER SERVICE ALBUQUERQUE NM
500 PM MDT THU APR 24 2014

NOTE: "FAIR" MEANS FEW OR NO CLOUDS BELOW 12,000 FEET AGL WITH NO
       SIGNIFICANT WEATHER OR OBSTRUCTIONS TO VISION.

      THIS PRODUCT IS RELEASED AS TWO VERSIONS.  ONE VERSION NEAR
      THE TOP OF THE HOUR CONTAINING PRELIMINARY DATA FROM ALBUQUERQUE
      AND OTHER STATIONS.  A FINAL VERSION WITH ADDITIONAL DATA IS
      ISSUED ABOUT 10 MINUTES AFTER THE HOUR.

NMZ501-503-504-510>518-250000-
NORTHWEST PLATEAU/NORTHCENTRAL MOUNTAINS

CITY           SKY/WX    TMP DP  RH WIND       PRES   REMARKS
FARMINGTON     SUNNY     66   3   8 W14G21    30.03F
LOS ALAMOS     CLOUDY    59  -5   7 NW8       30.09F
SANTA FE       CLOUDY    67  -6   5 W20G25    30.03S
TAOS           MOSUNNY   63   7  11 SW15G28   30.07F
ANGEL FIRE     FAIR      55   3  12 W13G24    30.08F

$$
NMZ402-403-502-505>509-250000-
WESTCENTRAL MOUNTAINS/SOUTHWEST MOUNTAINS

CITY           SKY/WX    TMP DP  RH WIND       PRES   REMARKS
GALLUP         MOSUNNY   70   2   7 W16G22    30.05F
SILVER CITY    SUNNY     73  10   9 W16G24    30.06F

$$
NMZ407-409-411-412-250000-
SOUTHERN DESERTS

CITY           SKY/WX    TMP DP  RH WIND       PRES   REMARKS
DEMING         SUNNY     80  13   8 W14G21    29.97F
LAS CRUCES     SUNNY     80  10   7 SW7       30.00F
T OR C         SUNNY     78  10   7 S18G26    29.97F

$$
NMZ519>523-250000-
CENTRAL VALLEYS/CENTRAL HIGHLANDS

CITY           SKY/WX    TMP DP  RH WIND       PRES   REMARKS
ALBUQUERQUE    MOSUNNY   69   8   9 SE10      30.01F
DOUBLE EAGLE   PTSUNNY   68  10  10 VRB7      30.03F
CLINES CORNERS PTSUNNY   62  -1   8 W23G29    30.06F
BELEN          FAIR      70  15  12 SE5       30.02S
SOCORRO        NOT AVBL

$$
NMZ524>526-539-540-250000-
SOUTHCENTRAL MOUNTAINS

CITY           SKY/WX    TMP DP  RH WIND       PRES   REMARKS
RUIDOSO        NOT AVBL

$$
NMZ527>531-250000-
NORTHEAST HIGHLANDS/NORTHEAST PLAINS

CITY           SKY/WX    TMP DP  RH WIND       PRES   REMARKS
LAS VEGAS      CLOUDY    65  -1   7 W21       30.02S
RATON          MOSUNNY   71  14  11 W9        29.92F
CLAYTON        MOSUNNY   67  15  13 SW14      29.95F

$$
NMZ532>537-250000-
EASTCENTRAL PLAINS

CITY           SKY/WX    TMP DP  RH WIND       PRES   REMARKS
TUCUMCARI      CLOUDY    73  23  15 S13       29.92F
CANNON AFB     NOT AVBL
CLOVIS AIRPORT PTSUNNY   70  25  18 SW12      30.02F

$$
NMZ028-029-538-250000-
SOUTHEAST PLAINS

CITY           SKY/WX    TMP DP  RH WIND       PRES   REMARKS
ROSWELL        MOSUNNY   78  23  13 NE7       29.95F
CARLSBAD       MOSUNNY   79  21  11 E9        29.95F
HOBBS          SUNNY     75  19  12 W7        29.99


$$



USA.gov is the U.S. government's official web portal to all federal, state and local government web resources and services.